GW1853 Weather Reports


Display with metric or nautical units.
time (UTC)temp
F
wind
direction
speed
MPH
gust
MPH
rain 1hr
in
rain 24hr
in
rain mn
in
humidity
%
barometer
mb
20260506083515 48 41 2.0 4.0 0.02 0.87 0.23 96 1009.4
20260506082515 48 30 1.0 5.0 0.01 0.87 0.22 96 1009.3
20260506081515 48 27 1.0 8.0 0.01 0.87 0.22 96 1009.2
20260506080535 48 54 1.0 7.0 0.02 0.87 0.22 97 1009.0
20260506073515 47 35 2.0 8.0 0.02 0.87 0.21 97 1008.8
20260506072515 47 36 2.0 6.0 0.02 0.87 0.21 97 1008.7
20260506071515 47 37 1.0 8.0 0.02 0.87 0.21 97 1008.5
20260506070515 47 46 1.0 7.0 0.01 0.87 0.20 97 1008.4
20260506061518 47 39 2.0 7.0 0.02 0.86 0.20 97 1008.0
20260506060517 47 33 2.0 5.0 0.02 0.86 0.20 97 1007.9
20260506050517 47 32 3.0 8.0 0.02 0.84 0.18 97 1007.3
20260506044518 47 33 1.0 6.0 0.02 0.83 0.17 97 1007.2
20260506043517 47 44 2.0 4.0 0.02 0.83 0.17 97 1007.1
20260506042537 48 30 2.0 9.0 0.02 0.83 0.17 97 1007.1
20260506041518 48 10 1.0 5.0 0.02 0.83 0.17 97 1007.1
20260506040518 48 35 2.0 6.0 0.02 0.83 0.17 97 1007.1
20260506035517 48 35 1.0 7.0 0.02 0.82 0.16 97 1007.1
20260506034517 48 70 1.0 4.0 0.02 0.82 0.16 97 1007.1
20260506033518 48 28 2.0 6.0 0.02 0.81 0.15 97 1007.1
20260506032518 48 33 1.0 5.0 0.02 0.81 0.15 97 1007.0
20260506031537 48 41 1.0 5.0 0.02 0.80 0.14 97 1007.1
20260506030515 49 50 1.0 4.0 0.02 0.80 0.14 97 1007.1
20260506025555 49 48 1.0 4.0 0.02 0.80 0.14 97 1007.2
20260506024515 49 44 1.0 5.0 0.02 0.80 0.13 97 1007.3
20260506023515 49 28 0.0 2.0 0.02 0.80 0.13 97 1007.3
20260506022515 49 46 1.0 3.0 0.02 0.79 0.13 97 1007.3
20260506021515 49 52 1.0 6.0 0.02 0.79 0.13 97 1007.3
20260506020515 49 40 1.0 5.0 0.02 0.78 0.12 97 1007.2
20260506015515 50 33 1.0 5.0 0.02 0.78 0.12 97 1007.2
20260506014535 50 7 1.0 4.0 0.02 0.77 0.11 97 1007.3
20260506013515 50 60 0.0 3.0 0.02 0.77 0.11 97 1007.2
20260506012515 50 41 0.0 3.0 0.02 0.76 0.10 97 1007.3
20260506011515 50 44 1.0 5.0 0.02 0.76 0.10 97 1007.2
20260506010515 50 39 1.0 4.0 0.02 0.76 0.09 97 1007.3
20260506005515 50 49 1.0 5.0 0.03 0.76 0.09 97 1007.2
20260506004515 50 45 2.0 6.0 0.02 0.75 0.09 97 1007.3
20260506003515 51 38 1.0 5.0 0.03 0.75 0.09 97 1007.3
20260506002515 51 38 1.0 7.0 0.02 0.74 0.08 97 1007.3
20260506001515 51 40 2.0 7.0 0.03 0.74 0.08 97 1007.3
20260506000518 51 45 2.0 9.0 0.03 0.73 0.07 97 1007.4
20260505235516 51 43 1.0 5.0 0.02 0.72 0.06 97 1007.4
20260505234517 52 29 2.0 7.0 0.03 0.72 0.06 97 1007.4
20260505233516 52 44 0.0 4.0 0.03 0.72 0.06 97 1007.4
20260505232517 52 0.0 0.0 0.03 0.72 0.06 97 1007.4
20260505231516 52 352 0.0 1.0 0.03 0.71 0.05 97 1007.5
20260505230518 52 352 0.0 1.0 0.03 0.70 0.04 97 1007.4
20260505225516 52 58 0.0 2.0 0.04 0.70 0.04 97 1007.4
20260505224537 52 33 0.0 4.0 0.04 0.69 0.03 97 1007.4
20260505223516 52 39 2.0 6.0 0.03 0.69 0.02 97 1007.4
20260505222517 52 40 0.0 8.0 0.04 0.69 0.02 97 1007.4
20260505221556 52 40 1.0 4.0 0.04 0.68 0.02 97 1007.4
20260505220517 52 41 2.0 6.0 0.04 0.67 0.01 97 1007.5
20260505215516 52 29 1.0 5.0 0.04 0.66 0.66 97 1007.5
20260505214518 52 30 1.0 6.0 0.04 0.65 0.65 97 1007.6
20260505213516 52 20 1.0 3.0 0.05 0.65 0.65 97 1007.7
20260505212518 52 52 1.0 3.0 0.05 0.65 0.65 97 1007.8
20260505211516 52 350 0.0 2.0 0.05 0.64 0.64 97 1007.7
20260505210517 52 291 1.0 3.0 0.05 0.63 0.63 97 1007.7
20260505205516 52 269 0.0 3.0 0.04 0.62 0.62 97 1007.8
20260505204517 52 289 1.0 7.0 0.04 0.61 0.61 97 1007.7
20260505203536 52 284 1.0 4.0 0.04 0.61 0.61 97 1007.7
20260505202517 52 286 1.0 6.0 0.04 0.60 0.60 97 1007.6
20260505201517 52 287 1.0 3.0 0.03 0.59 0.59 97 1007.6
20260505200517 52 288 0.0 4.0 0.03 0.58 0.58 97 1007.5
20260505195557 52 286 1.0 4.0 0.04 0.58 0.58 97 1007.4
20260505194537 52 271 0.0 2.0 0.05 0.57 0.57 97 1007.3
20260505193517 52 278 0.0 1.0 0.05 0.57 0.57 97 1007.2
20260505192517 52 285 0.0 3.0 0.05 0.56 0.56 97 1007.1
20260505191517 52 262 0.0 2.0 0.06 0.56 0.56 97 1007.0
20260505190517 52 291 1.0 3.0 0.06 0.55 0.55 97 1007.0
20260505185517 52 0.0 0.0 0.06 0.54 0.54 97 1006.9
20260505184517 52 291 0.0 4.0 0.06 0.53 0.53 97 1006.9
20260505183557 52 294 1.0 5.0 0.06 0.52 0.52 96 1006.8
20260505182517 52 286 1.0 4.0 0.06 0.51 0.51 96 1006.7
20260505181517 52 271 0.0 2.0 0.06 0.50 0.50 96 1006.7
20260505180517 52 305 1.0 4.0 0.06 0.49 0.49 96 1006.7
20260505175517 52 281 1.0 4.0 0.06 0.48 0.48 96 1006.7
20260505174515 52 0.0 2.0 0.06 0.47 0.47 96 1006.7
20260505173515 52 314 0.0 3.0 0.05 0.46 0.46 96 1006.8
20260505172515 52 34 1.0 3.0 0.05 0.45 0.45 96 1006.8
20260505171515 52 41 1.0 4.0 0.06 0.44 0.44 96 1006.8
20260505170515 52 48 0.0 2.0 0.06 0.43 0.43 96 1006.8
20260505165535 52 25 1.0 3.0 0.06 0.43 0.43 96 1006.7
20260505164515 52 40 1.0 4.0 0.06 0.42 0.42 96 1006.7
20260505163515 53 38 2.0 5.0 0.06 0.41 0.41 96 1006.8
20260505162515 53 30 1.0 5.0 0.07 0.40 0.40 96 1006.7
20260505161515 53 36 1.0 5.0 0.07 0.39 0.39 96 1006.7
20260505160515 53 41 2.0 10.0 0.09 0.38 0.38 96 1006.7
20260505152535 53 50 3.0 10.0 0.09 0.34 0.33 96 1006.6
20260505151515 53 38 2.0 9.0 0.09 0.32 0.31 96 1006.6
20260505150515 53 36 3.0 12.0 0.08 0.30 0.29 96 1006.6
20260505140518 54 38 3.0 10.0 0.10 0.23 0.21 96 1006.5
20260505124517 55 38 2.0 8.0 0.02 0.14 0.09 96 1006.6
20260505123517 55 43 3.0 9.0 0.02 0.14 0.08 96 1006.6
20260505122537 55 33 3.0 10.0 0.01 0.13 0.07 96 1006.5
20260505121517 55 34 5.0 13.0 0.01 0.13 0.07 96 1006.5
20260505120517 55 32 3.0 10.0 0.00 0.13 0.06 96 1006.6
20260505115517 55 36 2.0 8.0 0.00 0.16 0.06 96 1006.7
20260505114517 55 42 3.0 11.0 0.00 0.17 0.06 96 1006.7
20260505113515 55 41 4.0 13.0 0.01 0.17 0.06 96 1006.7
20260505112515 55 40 4.0 10.0 0.01 0.17 0.06 96 1006.8
20260505111634 55 43 3.0 9.0 0.02 0.17 0.06 96 1006.9
20260505110515 55 41 5.0 13.0 0.02 0.17 0.06 96 1007.1
20260505101515 54 42 3.0 7.0 0.02 0.16 0.05 96 1007.4
20260505100514 55 32 2.0 7.0 0.02 0.16 0.05 96 1007.5
20260505095535 55 41 2.0 6.0 0.02 0.15 0.04 96 1007.5
20260505094514 54 33 2.0 8.0 0.02 0.14 0.03 96 1007.5
20260505093535 54 26 1.0 8.0 0.01 0.13 0.02 96 1007.5
20260505092514 54 28 1.0 6.0 0.01 0.13 0.02 96 1007.5
20260505091535 54 49 1.0 6.0 0.01 0.13 0.02 96 1007.5
20260505090514 54 33 2.0 6.0 0.01 0.13 0.02 96 1007.5
20260505085515 54 40 1.0 5.0 0.02 0.13 0.02 96 1007.5
20260505084514 54 49 2.0 6.0 0.01 0.13 0.02 96 1007.5